Theta_e
288 288 288 288 288 287 285 285 285 284 283 283 282 281 281 280 279 278 278 277 277 276 276 277 276 277 276 276 277 276 275 275 271 274 276 276 276 276 277 277 278 277 278
289 288 287 288 287 286 286 284 285 283 283 283 282 281 280 280 279 278 277 277 276 276 276 276 275 276 275 275 274 274 274 274 273 271 274 274 275 276 276 275 277 278 278
288 287 287 286 285 286 286 284 283 283 282 281 281 280 280 279 278 278 277 276 276 275 275 275 274 274 274 273 273 273 273 274 273 272 271 274 274 275 275 276 277 277 278
285 285 286 286 285 286 286 284 282 282 281 280 280 280 279 278 278 277 276 275 274 274 275 275 274 274 273 273 273 273 274 273 273 272 272 272 274 276 276 274 274 276 276
286 285 286 286 286 286 284 283 282 282 281 280 279 278 278 277 277 276 275 275 274 273 274 274 274 274 276 275 274 273 273 272 272 272 272 273 273 274 273 275 274 274 275
285 285 286 284 284 284 283 282 281 280 279 279 278 277 276 276 281 281 277 274 274 273 272 273 274 274 275 278 279 280 278 271 270 271 272 273 273 274 275 274 273 272 270
284 285 284 284 283 283 282 280 280 279 278 278 277 276 276 276 282 282 280 275 274 273 273 274 275 275 275 275 277 278 278 279 280 276 273 273 273 274 274 273 273 273 273
282 283 281 283 282 281 280 279 278 278 277 276 276 276 275 275 283 283 280 275 274 274 275 275 275 275 275 274 274 274 274 275 276 276 275 275 276 277 276 276 276 273 272
281 280 280 280 280 278 277 277 277 277 276 276 276 276 275 275 283 283 280 275 275 275 275 275 275 274 276 277 276 272 274 275 278 280 280 280 280 280 280 274 269 267 266
279 280 279 279 280 277 278 277 278 277 277 276 275 275 275 275 283 283 281 276 274 274 274 275 276 275 276 277 274 270 271 273 274 272 273 275 275 273 275 273 270 266 266
277 276 276 276 277 277 276 275 275 275 275 274 274 274 274 275 280 283 282 276 274 273 273 273 274 278 278 277 278 274 272 275 273 272 269 269 270 270 271 271 271 270 267
275 274 274 275 276 276 275 273 274 274 273 272 271 271 273 274 279 283 283 278 277 272 273 274 274 276 276 277 276 276 276 275 266 265 265 266 267 268 270 271 272 272 272
275 275 274 275 275 275 273 272 273 273 272 271 271 270 270 271 275 282 282 280 278 273 274 274 275 276 275 273 272 273 271 268 266 263 264 266 268 269 271 270 271 271 271
277 276 274 274 274 274 275 274 273 272 272 272 272 271 270 270 272 276 278 279 278 275 276 273 272 271 271 270 268 269 268 267 266 265 265 267 268 268 267 269 267 268 267
278 277 275 274 274 273 274 274 274 275 275 273 273 272 270 269 270 275 277 276 276 273 267 265 265 265 265 265 265 265 266 266 265 266 265 265 265 266 266 268 267 267 266
273 276 276 274 273 273 272 272 278 277 278 279 278 275 273 275 276 278 279 278 277 276 264 263 264 264 264 264 263 263 264 264 264 265 264 264 264 264 265 265 267 266 266
268 271 275 273 273 272 271 271 270 275 278 279 279 278 277 276 277 278 278 278 278 275 263 263 263 263 263 263 262 262 261 263 264 263 263 263 263 264 263 264 265 267 266
266 268 271 274 273 271 271 271 271 271 271 272 278 278 278 277 278 278 278 278 273 266 261 261 260 260 260 260 260 260 260 260 261 261 261 261 261 262 262 263 264 265 265
264 266 269 274 273 272 271 270 270 271 271 272 274 277 276 279 279 279 279 273 265 260 259 258 258 258 258 258 257 256 255 256 258 257 258 259 260 261 262 263 265 264 264
263 265 268 272 271 270 269 269 269 270 270 271 272 272 274 276 275 275 264 264 262 260 258 258 256 255 255 254 252 252 253 254 255 255 257 259 260 262 262 264 264 263 263
262 264 267 271 269 268 268 269 269 270 270 270 271 273 276 274 272 262 261 261 260 259 258 257 255 254 253 251 249 250 251 254 254 255 257 259 260 261 263 265 264 263 263
264 264 266 269 267 267 268 269 269 270 270 269 269 272 277 265 263 261 260 258 258 258 256 255 254 253 252 251 249 249 250 252 253 254 257 259 259 261 264 264 263 263 263
265 265 267 267 267 267 268 268 269 268 268 266 268 269 263 263 261 260 258 256 255 254 252 251 251 250 250 250 249 250 250 252 253 255 256 258 260 263 263 262 262 261 262
266 267 266 265 265 266 266 265 266 266 263 266 268 262 261 260 258 257 256 255 254 252 251 250 249 250 250 250 249 249 251 252 253 255 256 259 262 263 263 261 261 261 261
265 265 264 264 265 264 264 263 263 262 264 263 260 259 258 258 257 256 255 254 253 252 251 251 251 250 251 251 250 251 251 255 255 258 261 264 261 261 261 261 261 261 261
262 262 263 262 262 262 261 261 262 262 260 259 258 258 258 257 256 255 254 253 253 253 253 252 252 252 251 251 251 253 258 262 262 265 269 265 259 262 261 259 260 260 260
Wind_Speed
13 13 14 13 14 13 13 14 14 13 14 15 16 15 15 15 13 12 11 11 11 9 6 7 7 5 4 3 3 3 4 4 7 5 4 4 5 8 8 8 10 10 11
12 14 15 12 12 14 14 14 14 15 15 16 15 16 16 16 16 16 15 13 13 12 10 8 7 6 6 5 4 5 5 5 5 14 7 6 7 9 10 11 10 9 11
11 14 13 14 15 17 17 15 15 15 15 14 15 17 17 17 17 16 15 13 12 10 10 10 9 8 7 5 4 4 4 6 6 8 11 6 8 9 10 11 11 10 9
10 12 14 15 17 18 16 15 15 16 16 16 16 17 17 16 16 15 13 12 10 9 9 9 9 9 7 7 6 6 5 5 6 8 10 9 8 9 9 11 12 10 12
12 14 18 18 15 14 14 15 15 16 15 16 15 14 15 15 13 17 15 13 12 10 8 8 7 8 13 9 4 4 5 5 6 7 9 10 9 9 11 11 14 15 13
10 14 13 10 11 13 12 13 14 14 14 14 15 16 16 11 24 27 19 13 13 12 11 10 9 10 10 12 13 15 12 6 7 6 9 11 14 12 11 12 13 15 17
10 12 10 11 13 14 13 14 15 15 14 16 15 14 15 13 28 28 25 12 13 12 12 11 9 8 10 8 12 12 11 15 16 11 12 13 14 13 14 15 16 16 17
9 6 5 8 10 10 12 14 14 13 16 15 16 16 15 14 30 30 27 13 11 12 12 12 10 9 9 8 7 6 7 9 11 9 12 13 13 12 14 15 16 18 16
10 5 3 6 6 8 11 11 10 12 12 13 14 17 17 15 31 30 24 13 12 12 10 9 9 8 11 12 6 4 8 9 11 19 22 25 28 27 24 14 13 13 17
10 9 4 5 6 8 8 9 8 8 10 10 10 11 14 15 31 32 25 12 13 10 10 9 14 9 12 10 4 5 6 7 7 9 11 13 16 16 23 14 11 13 14
9 6 4 1 6 5 5 3 7 9 9 9 11 10 13 15 21 31 30 12 11 10 9 8 7 15 11 9 10 4 4 7 8 5 6 9 10 11 9 10 13 13 15
7 7 5 1 2 6 7 5 6 7 8 7 9 7 6 9 17 28 30 20 19 10 10 7 7 13 9 9 5 7 10 9 2 4 6 9 9 10 11 11 14 16 16
6 7 6 4 3 5 10 8 7 9 9 8 8 8 7 7 8 25 26 24 22 10 8 12 15 13 8 3 4 6 3 0 3 4 7 9 10 10 15 14 15 19 20
13 11 6 6 5 6 6 8 11 10 10 10 9 9 9 9 9 9 11 14 18 12 17 8 10 8 8 6 3 1 2 4 5 6 8 9 10 10 12 11 13 13 15
15 12 9 8 9 9 9 8 9 10 14 13 13 13 13 13 16 22 19 13 11 13 10 4 4 4 4 3 3 2 4 5 5 6 7 9 9 11 12 11 12 14 15
18 12 9 8 8 8 8 8 19 14 19 20 18 15 10 16 29 33 30 26 25 25 5 5 5 6 5 4 3 3 4 5 4 5 6 8 9 11 14 13 12 13 16
16 15 12 10 8 9 9 9 9 14 19 21 20 22 21 16 30 32 32 30 27 22 5 5 6 7 6 4 3 3 4 4 6 5 6 8 9 11 14 13 13 14 17
16 20 13 11 10 9 9 9 8 10 10 10 20 18 22 25 30 28 28 27 15 9 4 6 5 5 5 3 3 3 4 5 5 5 6 8 10 12 12 13 14 16 17
14 12 12 12 9 10 8 8 8 9 8 9 9 16 20 29 32 32 32 10 9 8 5 6 5 4 4 3 2 3 4 5 4 5 6 7 10 11 12 13 15 21 23
14 19 18 12 7 7 7 9 9 9 10 10 11 12 13 18 17 16 8 10 8 7 6 5 5 4 3 3 1 3 5 4 4 4 6 8 10 10 11 14 15 17 18
12 12 17 12 7 7 8 10 10 10 10 10 11 13 24 14 10 9 10 8 8 7 7 6 5 4 4 3 3 4 5 5 5 6 7 9 10 11 11 12 15 16 18
12 12 12 10 7 8 8 8 9 9 10 11 9 12 27 10 10 10 9 7 5 5 5 6 5 4 4 4 4 4 4 5 6 6 9 9 9 11 11 13 15 16 18
11 11 10 6 7 9 8 8 8 9 9 10 12 10 10 9 8 9 8 7 5 4 3 3 4 3 3 4 4 4 4 7 6 7 10 10 10 10 11 13 15 16 17
8 7 6 6 7 7 7 6 7 9 10 10 10 9 9 9 8 9 8 6 5 3 3 3 3 4 4 4 3 3 6 7 7 10 12 11 11 10 11 12 14 19 18
6 6 6 6 7 7 8 7 8 9 8 8 8 9 9 9 9 8 7 5 4 4 4 3 2 4 5 5 5 7 9 15 12 13 10 13 8 11 11 11 14 15 19
7 7 7 6 7 7 7 8 8 9 9 9 9 8 9 8 8 7 5 5 4 3 3 2 3 3 4 5 8 11 13 15 12 15 11 7 6 7 9 12 17 14 17
Wind_Direction
194 201 203 198 191 182 190 191 185 170 173 175 178 178 180 176 174 175 178 174 180 175 171 178 182 181 190 185 169 168 193 200 257 258 226 292 287 285 285 286 283 286 288
204 206 208 200 191 191 201 195 183 184 180 178 177 178 182 181 176 181 180 183 181 182 177 173 181 187 189 187 185 190 201 209 254 285 286 287 296 293 290 287 287 289 285
200 204 203 201 192 197 202 194 183 178 183 182 179 182 182 184 179 185 183 178 180 178 172 179 179 186 188 183 180 192 202 236 244 272 287 298 295 297 298 295 297 291 281
191 200 215 204 207 206 196 192 186 185 181 185 186 184 182 180 181 176 174 171 172 173 173 175 176 190 185 183 189 196 212 229 242 262 279 293 292 299 296 305 306 303 299
225 208 214 217 213 203 192 189 184 189 185 185 182 182 177 177 177 173 171 170 170 167 170 176 181 188 197 189 180 190 219 241 257 271 284 295 301 308 309 309 301 306 301
229 226 228 212 201 200 186 184 184 182 178 179 187 182 175 180 182 178 165 164 169 171 177 182 184 185 203 208 224 229 212 203 234 260 281 292 297 302 310 308 302 304 304
234 241 223 212 205 189 179 180 186 183 173 183 181 177 179 175 180 178 171 165 171 178 177 174 180 187 187 197 223 231 246 262 270 281 279 277 290 298 299 293 292 288 290
269 240 207 205 204 183 179 182 179 179 185 184 180 176 173 177 180 177 171 162 169 174 178 179 177 179 187 187 194 225 244 245 253 263 265 274 276 279 280 288 297 299 291
312 301 229 190 179 183 187 184 185 178 181 185 182 174 172 173 178 176 168 163 170 173 173 176 179 181 197 203 199 211 248 260 270 278 284 290 294 294 299 305 294 298 291
329 309 244 180 178 187 192 180 176 188 181 165 170 182 178 171 182 177 169 164 167 164 165 180 186 186 193 200 188 196 255 269 291 289 287 289 297 292 292 283 284 276 282
321 303 296 198 153 157 142 155 162 165 155 166 168 174 171 177 182 182 172 167 168 165 164 174 180 198 200 210 229 174 225 281 281 311 299 292 288 286 279 270 266 266 274
316 307 293 215 201 141 139 119 163 147 148 158 150 155 174 177 182 187 178 176 173 162 161 161 168 186 196 220 257 273 275 291 35 306 291 283 283 285 282 277 271 268 265
279 264 264 237 185 176 152 155 167 157 161 165 167 174 167 167 185 186 188 175 180 156 149 165 170 182 183 204 242 257 322 290 247 257 267 276 280 284 286 283 279 276 274
281 267 227 222 221 189 210 192 173 174 167 183 184 184 173 172 177 178 179 183 181 157 162 157 152 155 166 170 161 237 252 242 250 263 271 277 286 290 284 286 285 288 285
289 276 247 219 204 203 198 207 221 209 187 182 192 181 175 189 188 177 172 170 165 152 121 108 142 144 148 164 160 195 250 252 251 259 279 285 295 295 289 294 293 295 289
290 285 253 240 223 208 205 214 216 217 212 205 199 199 199 196 182 180 176 166 160 152 129 157 174 159 178 171 180 220 242 250 258 280 280 282 290 295 296 300 294 295 295
278 279 276 233 226 210 207 205 197 212 207 206 202 198 200 197 185 178 174 170 171 157 155 164 170 160 166 183 182 200 252 274 292 286 288 291 291 289 298 297 304 299 300
273 271 272 261 231 215 209 211 199 193 192 190 203 195 190 186 183 179 169 166 166 137 132 156 170 158 154 181 196 211 250 273 280 293 287 290 288 286 296 303 299 307 303
272 272 275 259 215 212 195 198 195 191 179 177 167 187 181 185 176 175 177 171 147 143 148 149 145 167 156 178 199 247 258 265 276 278 279 283 279 284 295 296 304 306 303
269 266 265 268 212 193 191 190 186 189 182 172 176 170 178 174 175 171 134 133 139 137 157 150 149 159 173 165 169 258 264 258 268 262 280 282 275 281 297 301 312 308 305
271 272 266 261 204 188 189 190 190 184 184 175 172 175 177 172 155 135 134 138 148 156 157 149 155 167 162 153 221 233 249 275 275 274 281 277 283 290 289 310 309 306 303
246 240 246 225 184 181 185 183 185 180 173 166 150 173 166 124 132 135 127 139 142 143 138 147 154 169 156 186 202 217 252 276 278 277 274 279 284 289 301 315 314 309 306
235 232 241 181 170 169 174 177 174 163 150 149 154 150 129 131 130 126 130 123 127 143 132 141 159 164 192 209 204 194 239 263 269 264 274 280 286 291 310 316 314 311 310
205 211 164 146 151 157 152 141 143 140 143 152 144 122 118 123 124 120 118 121 128 144 162 157 160 197 229 227 197 205 239 258 255 260 263 271 281 297 308 312 311 311 309
71 95 107 122 131 129 127 124 121 124 131 113 112 112 113 113 112 108 114 128 148 170 155 160 186 226 248 278 276 269 262 267 254 253 270 271 283 288 298 306 309 313 315
61 74 83 91 100 107 114 119 123 126 123 120 115 112 117 118 114 120 133 156 167 157 165 184 214 266 292 279 272 271 274 283 287 286 294 291 284 295 306 306 311 318 320